Find Starlink 31298

NORAD ID: 59167 Int'l Des: 2024-044 Owner: SPXS Country: US Constellation: starlink operational
LEOCIRCULAR

当前视图

正在加载3D地球...

About Starlink 31298

Starlink 31298 (NORAD 59167) is a starlink constellation satellite (v2 mini) launched Mar 4, 2024 by SPXS of US. It operates in LEO, CIRCULAR orbit with a mass of 730.00 kg.

关于 Starlink 31298

正在加载描述...

即将过境

Passes for default location (London). Set your location on the main map for personalized predictions.

高度历史

Loading altitude history...

两行轨道根数

1 59167U 24044R 26167.99772291 .00000447 00000-0 25788-4 0 9999
2 59167 43.0044 266.1733 0001690 270.2241 89.8417 15.27579256128756
Epoch: Jun 16, 2026 • Age: 27 hours

当前状态

高度 486.6 km
速度 7.63 km/s
星下点 40.28°N, 14.11°E
发射日期 Mar 4, 2024
运行时间 2.2 years
类型 internet

技术详情

分类 Payload
质量 730.00 kg
干质量 700.00 kg
总质量 730.00 kg
长度 0.30 m
直径 4.10 m
跨度 29.00 m
形状 Box + pan
制造商 SPXS
平台类型 Starlink V2M
阶段状态 In Orbit
所有者/国家 SPXS/US

Most Searched